www.pogodaiklimat.ru

Погода и климат >> Архив погоды >> Малайзия >> Kota Kinabalu


ПОГОДА в Kota Kinabalu

  • Прогноз погоды в Kota Kinabalu
  • Монитор погоды в Kota Kinabalu
  • Климат города

АРХИВ ПОГОДЫ в Kota Kinabalu

Время (UTC), дата Ветер
(напр.,м/с)
 
Видим.   Явления Облачность Т
(С)
Тd
(С)
f
(%)
Тe
(С)
Тes
(С)
Комфортность P
(гПа)
Po
(гПа)
Тmin
(С)
Tmax
(С)
R
(мм)
R24
(мм)
S
(см)
21 4.12 В 3 18 км 9/1 420 м
[Cu Sc Ac lent Cs]
+24.5 +23.0 91 +32 +32 очень
душно
1007.9 1007.6
00 5.12 В 3 25 км 8/1 450 м
[Cu Sc Ac lent Ci sp]
+28.3 +24.1 78 +39 +41 очень
душно
1010.0 1009.7 +24.5 4
03 5.12 СЗ 2 25 км 8/3 450 м
[Cu Sc Ac lent Ci sp]
+31.1 +26.2 75 +47 +54 опасность
перегрева
1009.6 1009.3
06 5.12 З 3 25 км 9/4 420 м
[Cu Sc Ac lent Ci sp]
+32.0 +27.2 76 +50 +54 опасность
перегрева
1006.7 1006.4
09 5.12 ЮВ 3 24 км в посл. час дождь 9/4 420 м
[Cb cap Ac lent Cs]
+27.9 +24.9 84 +40 +41 очень
душно
1006.2 1005.9
12 5.12 В 2 18 км 9/1 420 м
[Cu Sc Ac lent Cs]
+27.7 +26.1 91 +42 +42 опасность
перегрева
1007.5 1007.2 +33.0 0.2
15 5.12 В 1 18 км 9/3 420 м
[Cu Sc Ac lent Cs]
+26.6 +25.2 92 +38 +38 очень
душно
1007.7 1007.4
18 5.12 ЮВ 2 18 км 9/1 420 м
[Cu Sc Ac lent Ci sp]
+25.7 +24.3 92 +36 +36 очень
душно
1006.8 1006.5
21 5.12 В 3 18 км 9/1 450 м
[Cu Sc Ac lent Ci sp]
+25.3 +24.1 93 +35 +35 очень
душно
1006.2 1005.9
00 6.12 В 3 24 км 9/1 450 м
[Cu Sc Ac trans Ci sp]
+28.4 +24.9 81 +41 +42 опасность
перегрева
1008.5 1008.2 +25.1 0.2
03 6.12 СЗ 2 24 км 9/3 450 м
[Cu Sc Ac trans Ci sp]
+31.8 +27.0 76 +50 +56 опасность
перегрева
1007.6 1007.3
06 6.12 З 3 25 км 9/4 420 м
[Cb cap Ac lent Ci sp]
+33.3 +26.8 69 +51 +55 опасность
перегрева
1005.6 1005.3
09 6.12 В 4 5000 м гроза, ливневой дождь 9/4 400 м
[Cb cap Ac lent Cs]
+27.8 +25.5 87 +41 +41 опасность
перегрева
1006.2 1005.9
12 6.12 В 2 18 км в посл. час гроза 9/4 420 м
[Cb cap Ac lent Cs]
+26.2 +25.3 95 +38 +38 очень
душно
1007.4 1007.1 +33.4 5
15 6.12 В 2 18 км 9/3 420 м
[Cu Sc Ac lent Cs]
+25.6 +24.4 93 +36 +36 очень
душно
1007.6 1007.3
18 6.12 В 1 18 км 9/3 420 м
[Cu Sc Ac lent Cs]
+25.0 +24.0 94 +34 +34 очень
душно
1007.1 1006.8
21 6.12 В 3 18 км 9/3 420 м
[Cu Sc Ac lent Cs]
+24.5 +23.6 95 +33 +33 очень
душно
1007.2 1006.9
00 7.12 В 3 23 км 9/1 420 м
[Cu Sc Ac lent Ci sp]
+28.3 +24.5 80 +40 +41 очень
душно
1008.9 1008.6 +24.5 5
03 7.12 З 3 23 км 9/1 420 м
[Cu Sc Ac lent Ci sp]
+32.5 +26.5 71 +49 +56 опасность
перегрева
1009.0 1008.7
06 7.12 З 2 20 км 9/4 420 м
[Cb cap Ac lent Ci sp]
+33.1 +26.6 69 +50 +55 опасность
перегрева
1006.3 1006.0
09 7.12 С 2 25 км {дождь} 9/4 420 м
[Cu Sc Ac lent Cs]
+31.2 +26.2 75 +47 +48 опасность
перегрева
1006.0 1005.7
12 7.12 В 2 18 км в посл. час гроза {дождь} 9/4 420 м
[Cb cap Ac lent Cs]
+28.6 +25.9 85 +43 +43 опасность
перегрева
1008.0 1007.7 +33.4 0.0
15 7.12 ЮВ 2 18 км 9/3 420 м
[Cu Sc Ac lent Cs]
+26.9 +25.0 89 +39 +39 очень
душно
1008.9 1008.6
18 7.12 В 2 18 км 9/3 420 м
[Cu Sc Ac lent Cs]
+26.1 +24.3 90 +36 +36 очень
душно
1008.1 1007.8
21 7.12 В 2 18 км 9/3 420 м
[Cu Sc Ac lent Cs]
+25.8 +24.1 90 +36 +36 очень
душно
1008.2 1007.9
00 8.12 ЮВ 1 25 км 9/3 420 м
[Cu Sc Ac lent Cs]
+27.4 +24.5 84 +39 +40 очень
душно
1010.0 1009.7 +25.0 0.0
03 8.12 З 3 24 км 9/1 420 м
[Cu Sc Ac lent Ci sp]
+31.5 +25.9 72 +47 +53 опасность
перегрева
1010.5 1010.2
06 8.12 З 3 24 км 9/3 420 м
[Cu Sc Ac trans Ci sp]
+32.3 +27.0 74 +50 +55 опасность
перегрева
1008.0 1007.7
09 8.12 З 2 20 км осадки на расстоянии 9/4 420 м
[Cu Sc Ac lent Cs]
+31.2 +26.0 74 +47 +47 опасность
перегрева
1006.8 1006.5
12 8.12 Ю 3 18 км 9/3 450 м
[Cu Sc Ac lent Cs]
+28.5 +25.7 85 +42 +42 опасность
перегрева
1008.9 1008.6 +32.9
15 8.12 ЮВ 2 18 км 9/3 420 м
[Cu Sc Ac lent Cs]
+27.2 +25.0 88 +39 +39 очень
душно
1009.8 1009.5
18 8.12 В 3 18 км 9/1 450 м
[Cu Sc Ac trans Ci sp]
+26.2 +24.1 88 +36 +36 очень
душно
1008.7 1008.4
21 8.12 В 3 18 км 9/1 450 м
[Cu Sc Ac trans Ci sp]
+25.3 +23.4 89 +34 +34 очень
душно
1008.6 1008.3
00 9.12 В 2 25 км 9/3 420 м
[Cu Sc Ac lent Ci sp]
+27.3 +24.2 83 +38 +39 очень
душно
1010.4 1010.1 +25.2
03 9.12 З 2 25 км 9/3 420 м
[Cu Sc Ac lent Cs]
+31.6 +26.5 74 +48 +54 опасность
перегрева
1010.3 1010.0
06 9.12 З 3 25 км 9/3 420 м
[Cu Sc Ac lent Cs]
+33.0 +27.1 71 +51 +56 опасность
перегрева
1007.5 1007.2
09 9.12 В 2 20 км гроза без осадков {дождь} 9/6 420 м
[Cb cap Ac lent Cs]
+29.0 +26.9 88 +45 +46 опасность
перегрева
1006.7 1006.4
12 9.12 В 3 18 км зарница {гроза, дождь} 9/3 420 м
[Cb cap Ac lent Cs]
+26.9 +25.6 93 +40 +40 очень
душно
1008.7 1008.4 +33.1 3
15 9.12 В 2 18 км зарница 9/1 420 м
[Cb cap Ac lent Ci sp]
+26.2 +24.6 91 +37 +37 очень
душно
1009.3 1009.0
18 9.12 ЮВ 3 18 км зарница 9/3 420 м
[Cb cap Ac lent Cs]
+25.9 +24.5 92 +36 +36 очень
душно
1008.0 1007.7
21 9.12 В 2 18 км 9/3 450 м
[Cu Sc Ac lent Cs]
+25.9 +24.3 91 +36 +36 очень
душно
1007.7 1007.4
00 10.12 В 2 25 км 9/3 450 м
[Cu Sc Ac lent Cs]
+27.7 +24.9 85 +40 +41 очень
душно
1010.2 1009.9 +25.7 3
03 10.12 З 2 25 км 9/3 450 м
[Cu Sc Ac lent Ci sp]
+31.3 +26.8 77 +49 +55 опасность
перегрева
1010.0 1009.7
06 10.12 СВ 3 7000 м гроза, ливневой дождь 10/9 300 м
[Cb cap Ac lent Cs]
+27.7 +26.7 94 +43 +43 опасность
перегрева
1008.4 1008.1 10
09 10.12 В 3 12 км слабый ливневой дождь, в посл. час гроза 10/6 400 м
[Cu Sc Ac lent Cs]
+25.1 +23.6 91 +34 +34 очень
душно
1007.5 1007.2
12 10.12 ЮВ 3 18 км {дождь} 9/3 420 м
[Cu Sc Ac lent Cs]
+25.1 +23.8 93 +34 +34 очень
душно
1008.8 1008.5 +32.6 6
15 10.12 ЮВ 2 18 км 9/3 420 м
[Cu Sc Ac lent Cs]
+24.2 +23.0 93 +32 +32 очень
душно
1008.5 1008.2
18 10.12 В 3 18 км 9/3 420 м
[Cu Sc Ac lent Cs]
+23.7 +22.5 93 +31 +31 очень
душно
1008.1 1007.8
21 10.12 В 3 18 км 9/3 420 м
[Cu Sc Ac lent Ci sp]
+23.5 +22.0 91 +30 +30 очень
душно
1008.3 1008.0
00 11.12 В 3 28 км 8/1 420 м
[Cu Sc Ac trans Ci sp]
+27.3 +23.3 79 +37 +38 очень
душно
1010.3 1010.0 +23.3 11
03 11.12 З 2 28 км 8/1 450 м
[Cu Sc Ac trans Ci fib]
+31.6 +26.0 72 +47 +55 опасность
перегрева
1010.3 1010.0
06 11.12 З 2 23 км 9/1 420 м
[Cu Sc Ac lent Ci sp]
+32.6 +26.2 69 +49 +55 опасность
перегрева
1008.1 1007.8
09 11.12 С 2 23 км 9/1 420 м
[Cu Sc Ac lent Ci sp]
+30.9 +25.6 73 +45 +46 опасность
перегрева
1007.3 1007.0
12 11.12 СВ 4 18 км 9/3 420 м
[Cu Sc Ac lent Cs]
+28.8 +26.3 86 +44 +44 опасность
перегрева
1009.4 1009.1 +29.3
15 11.12 В 2 18 км 9/3 420 м
[Cu Sc Ac lent Cs]
+26.4 +24.7 90 +37 +37 очень
душно
1009.8 1009.5
18 11.12 В 2 18 км 9/1 420 м
[Cu Sc Ac trans Cs]
+25.3 +23.9 92 +35 +35 очень
душно
1009.0 1008.7

 

Местоположение метеостанции Kota Kinabalu (Малайзия): широта 5.93 долгота 116.05 высота над уровнем моря 3 м.

В архиве по умолчанию представлена погода в Kota Kinabalu за последнюю неделю. Архивные данные за месяц целиком и за предыдущие месяцы, начиная с января 2011 года, Вы можете получить, выбрав интересующий диапазон дат из раскрывающегося списка и нажав кнопку "Ввод!".


*Определитесь, кто Вы:
робот инопланетянин человек

Внимание! Время в таблицах - всемирное. Для получения местного времени необходимо прибавить поправку, которая в Kota Kinabalu равна 8 ч.

Смотрите также архив погоды в соседних городах и на ближайших метеорологических станциях:

Погода в Labuan (Малайзия) (113 км)
Погода в Brunei Airport (Бруней) (167 км)
Погода в Sandakan (Малайзия) (222 км)
Погода в Longbawan (Индонезия) (248 км)
Погода в Tawau (Малайзия) (274 км)
Погода в Miri (Малайзия) (290 км)
Погода в Tarakan (Индонезия) (334 км)
Погода в Tanjung Selor (Индонезия) (371 км)
Погода в Tanjung Redep (Индонезия) (451 км)
Погода в Bintulu (Малайзия) (452 км)

Пояснения к столбцам:

Ветер - указаны скорость ветра в м/с - средняя за 10 мин, порывы в срок и между сроками (в фигурных скобках) и направление, откуда дует ветер: С - северный, СВ - северо-восточный, В - восточный, ЮВ - юго-восточный, Ю - южный, ЮЗ - юго-западный, З - западный, СЗ - северо-западный.
Видимость - горизонтальная дальность видимости в метрах или километрах. При видимости от 1 до 10 км при отсутствии осадков обычно наблюдается дымка, при ухудшении видимости до 1 км и менее - туман. В сухую погоду видимость может ухудшаться дымом, пылью или мглою.
Явления - указаны атмосферные явления, наблюдавшиеся в срок или в последний час перед сроком; фигурными скобками обозначены явления, наблюдавшиеся между сроками (за 1-3 часа до срока); квадратными скобками обозначены град или гололедные отложения с указанием их диаметра в мм.
Облачность - указаны через наклонную черту общая и нижняя облачность в баллах и высота нижней границы облаков в метрах; квадратными скобками обозначены формы облаков: Ci - перистые, Cs - перисто-слоистые, Cc - перисто-кучевые, Ac - высококучевые, As - высокослоистые, Sc - слоисто-кучевые, Ns - слоисто-дождевые, Cu - кучевые, Cb - кучево-дождевые. Подробнее классификацию облаков см. в Атласе облаков (PDF).
T - Температура воздуха - температура, измеренная на высоте 2 м над землей.
Td - Температура точки росы - температура, при понижении до которой содержащийся в воздухе водяной пар достигнет насыщения.
f - Относительная влажность воздуха - влажноcть воздуха, измеренная на высоте 2 м над землей.
Te - Эффективная температура - температура, которую ощущает одетый по сезону человек в тени. Характеристика душности погоды. При расчете учитывается влияние влажности воздуха и скорости ветра на теплоощущения человека.
Tes - Эффективная температура на солнце - температура, которую ощущает человек, с поправкой на солнечный нагрев. Характеристика знойности погоды. Зависит от высоты солнца над горизонтом, облачности и скорости ветра. Ночью, в пасмурную погоду, а также при ветре 12 м/с и более поправка равна нулю.
P - Атмосферное давление - приведенное к уровню моря атмосферное давление.
Po - Атмосферное давление - измеренное на уровне метеостанции атмосферное давление.
Tmin - Минимальная температура - минимум температуры воздуха на высоте 2 м над землей.
Tmax - Максимальная температура - максимум температуры воздуха на высоте 2 м над землей.
R - Количество осадков - Количество выпавших осадков за период времени, мм. При наведении курсора мыши на число - период времени, за который выпало указанное количество осадков.
R24 - Количество осадков - Количество выпавших осадков за 24 часа, мм.
S - Снежный покров - Высота снежного покрова, см. При наведении курсора мыши на число - состояние снежного покрова и степень покрытия местности в баллах.